Weather History for Glendale Luke AFB, AZ

Change the Weather History Date:

Monday, September 2, 2013

  Actual Average Record
Temperature  
Mean Temperature 92 °F -  
Max Temperature 102 °F 103 °F 114 °F (1948)
Min Temperature 82 °F 72 °F 58 °F (1953)
Cooling Degree Days 27    
Growing Degree Days 42 (Base 50)    
Moisture  
Dew Point 66 °F    
Average Humidity 43    
Maximum Humidity 59    
Minimum Humidity 28    
Precipitation  
Precipitation 0.00 in - - ()
Sea Level Pressure  
Sea Level Pressure 29.78 in    
Wind  
Wind Speed 5 mph (WNW)    
Max Wind Speed 17 mph    
Max Gust Speed -    
Visibility 10 miles    
Events      
Averages and records for this station are not official NWS values.
T = Trace of Precipitation, MM = Missing Value Source: NWS Daily Summary

Daily Weather History Graph

Daily Weather History Graph

Search for Another Location

Airport:

Trip Planner

Search our weather history database for the weather conditions in past years. The results will help you decide how hot, cold, wet, or windy it might be!

Date:

Astronomy

Sep. 02, 2013 Rise Set
Actual Time 6:04 AM MST 6:53 PM MST
Civil Twilight 5:39 AM MST 7:18 PM MST
Nautical Twilight 5:09 AM MST 7:48 PM MST
Astronomical Twilight 4:38 AM MST 8:18 PM MST
Moon 3:29 AM MST (9/2) 5:05 PM MST (9/2)
Length of Visible Light 13h 39m
Length of Day
12h 48m
Waning Crescent, 7% of the Moon is Illuminated
Sep 2
Waning Crescent
Sep 5
New
Sep 12
First Quarter
Sep 19
Full
Sep 26
Last Quarter

Hourly Weather History & Observations

Time (MST) Temp. Heat Index Dew Point Humidity Pressure Visibility Wind Dir Wind Speed Gust Speed Precip Events Conditions
12:58 AM 89.6 °F 91.8 °F 65.7 °F 45% 29.78 in 10.0 mi West 4.6 mph - N/A   Clear
1:58 AM 89.1 °F 91.0 °F 65.5 °F 45% 29.78 in 10.0 mi WNW 4.6 mph - N/A   Partly Cloudy
2:58 AM 86.9 °F 90.3 °F 67.6 °F 53% 29.76 in 10.0 mi NNE 3.5 mph - N/A   Clear
3:58 AM 84.6 °F 87.6 °F 68.0 °F 57% 29.77 in 10.0 mi North 4.6 mph - N/A   Clear
4:58 AM 82.9 °F 85.6 °F 67.5 °F 59% 29.78 in 10.0 mi NNW 5.8 mph - N/A   Clear
5:58 AM 83.1 °F 85.9 °F 67.3 °F 59% 29.80 in 10.0 mi North 4.6 mph - N/A   Mostly Cloudy
6:58 AM 85.5 °F 88.5 °F 67.5 °F 55% 29.81 in 10.0 mi North 5.8 mph - N/A   Scattered Clouds
7:58 AM 89.8 °F 91.8 °F 64.9 °F 44% 29.83 in 10.0 mi NNE 9.2 mph - N/A   Scattered Clouds
8:58 AM 92.1 °F 94.4 °F 65.1 °F 41% 29.85 in 10.0 mi NNE 4.6 mph - N/A   Partly Cloudy
9:58 AM 95.7 °F 98.7 °F 65.3 °F 37% 29.86 in 10.0 mi SE 10.4 mph - N/A   Clear
10:58 AM 97.5 °F 100.3 °F 64.4 °F 34% 29.85 in 10.0 mi Calm Calm - N/A   Clear
11:58 AM 98.1 °F 100.7 °F 64.6 °F 33% 29.83 in 10.0 mi South 9.2 mph - N/A   Scattered Clouds
12:58 PM 98.8 °F 101.4 °F 63.9 °F 32% 29.81 in 10.0 mi Variable 3.5 mph - N/A   Partly Cloudy
1:58 PM 102.2 °F 104.9 °F 63.9 °F 28% 29.78 in 10.0 mi Variable 5.8 mph - N/A   Clear
2:58 PM 99.9 °F 103.3 °F 64.8 °F 32% 29.77 in 10.0 mi South 17.3 mph - N/A   Partly Cloudy
3:58 PM 96.1 °F 98.8 °F 65.3 °F 36% 29.73 in 10.0 mi SW 10.4 mph - 0.00 in   Clear
4:58 PM 98.4 °F 101.3 °F 65.1 °F 33% 29.71 in 10.0 mi West 3.5 mph - N/A   Clear
5:58 PM 99.3 °F 101.7 °F 63.3 °F 31% 29.71 in 10.0 mi Calm Calm - N/A   Clear
6:58 PM 96.8 °F 100.7 °F 66.7 °F 37% 29.72 in 10.0 mi SW 6.9 mph - N/A   Partly Cloudy
7:58 PM 94.6 °F 98.9 °F 67.6 °F 41% 29.74 in 10.0 mi SW 5.8 mph - N/A   Partly Cloudy
8:58 PM 93.0 °F 97.9 °F 68.5 °F 45% 29.75 in 10.0 mi SSW 4.6 mph - N/A   Clear
9:58 PM 90.1 °F 94.9 °F 69.3 °F 50% 29.77 in 10.0 mi Calm Calm - N/A   Clear
10:58 PM 89.6 °F 93.0 °F 67.8 °F 48% 29.77 in 10.0 mi Calm Calm - N/A   Clear
11:58 PM 88.7 °F 90.8 °F 65.3 °F 46% 29.78 in 10.0 mi NW 15.0 mph - N/A   Clear